ContactaLinksHome
    
DADES METEOROLÒGIQUES DE LES ÚLTIMES 24 HORES
 

Taire  Temperatura de l'aire  (ºC)
HumitatR  Humitat relativa de l'aire (%)
Pluja  Litres de pluja per metre cuadrat caiguts en 10 minuts (l/m²)
VelVent  Velocitat mitjana del vent (m/s)
DirVent  Direcció del vent  (º)
RadSolar  Intensitat de Radiació solar (w/m²)
PressAtm  Pressió atmosfèrica (mb)
  ***Dades sense verificar
DataTaireHumitatRPlujaVelVentDirVentRadSolarPressAtm
25/04/2018 23:50:0018.6650,00.829801016
25/04/2018 23:40:0018.6640,01.132901017
25/04/2018 23:30:0018.6650,01.532401017
25/04/2018 23:20:0018.6660,01.331601017
25/04/2018 23:10:0018.6680,01.831801017
25/04/2018 23:00:0018.7690,01.433101017
25/04/2018 22:50:0018.6710,00.631501017
25/04/2018 22:40:0018.4730,00.630601017
25/04/2018 22:30:0018.3740,00.731601017
25/04/2018 22:20:0018.2750,01.73901017
25/04/2018 22:10:0017.9780,02.83601017
25/04/2018 22:00:0017.8780,03.16601017
25/04/2018 21:50:0017.6800,03.06801017
25/04/2018 21:40:0017.4820,03.36701018
25/04/2018 21:30:0017.5830,03.27201017
25/04/2018 21:20:0017.5830,03.15301017
25/04/2018 21:10:0017.4830,03.15701017
25/04/2018 21:00:0017.4830,02.14301017
25/04/2018 20:50:0017.5820,01.35101017
25/04/2018 20:40:0017.6810,01.38501017
25/04/2018 20:30:0017.6810,01.17101017
25/04/2018 20:20:0017.6800,01.27201017
25/04/2018 20:10:0017.7790,00.99201017
25/04/2018 20:00:0017.7790,00.95501017
25/04/2018 19:50:0017.7790,00.85901017
25/04/2018 19:40:0017.7790,01.46501017
25/04/2018 19:30:0017.7790,01.06101017
25/04/2018 19:20:0017.7790,01.02701017
25/04/2018 19:10:0017.7780,01.22801017
25/04/2018 19:00:0017.7780,01.25701017
25/04/2018 18:50:0017.7780,01.810501017
25/04/2018 18:40:0017.8770,01.66331017
25/04/2018 18:30:0017.8780,01.74781017
25/04/2018 18:20:0017.8770,01.837171016
25/04/2018 18:10:0017.9770,01.788321016
25/04/2018 18:00:0018.0760,03.189541016
25/04/2018 17:50:0018.2750,03.589841016
25/04/2018 17:40:0018.2740,04.2741091016
25/04/2018 17:30:0018.4740,04.5751381016
25/04/2018 17:20:0018.5720,05.6681751017
25/04/2018 17:10:0018.5740,06.1622161017
25/04/2018 17:00:0018.0780,05.4631771017
25/04/2018 16:50:0017.8800,04.7421951017
25/04/2018 16:40:0017.5810,04.0522221017
25/04/2018 16:30:0017.6810,03.5482001017
25/04/2018 16:20:0017.8810,03.1632191017
25/04/2018 16:10:0017.9800,02.7612261017
25/04/2018 16:00:0018.1800,02.5592151017
25/04/2018 15:50:0018.2790,02.1583141018
25/04/2018 15:40:0018.3800,02.4684231017
25/04/2018 15:30:0018.2800,03.1615341017
25/04/2018 15:20:0018.1820,03.0685821017
25/04/2018 15:10:0017.8830,03.0785651018
25/04/2018 15:00:0017.5830,03.2936401018
25/04/2018 14:50:0017.7830,03.6756611017
25/04/2018 14:40:0017.4830,03.7836871017
25/04/2018 14:30:0017.3830,04.0876781017
25/04/2018 14:20:0017.3830,04.4837021017
25/04/2018 14:10:0017.2820,04.91036211017
25/04/2018 14:00:0017.4820,05.1956281017
25/04/2018 13:50:0017.6810,04.7907491017
25/04/2018 13:40:0017.6800,04.9837861017
25/04/2018 13:30:0017.6800,04.9818001017
25/04/2018 13:20:0017.5800,05.3916461018
25/04/2018 13:10:0017.6790,05.3886341018
25/04/2018 13:00:0017.8780,05.3757451018
25/04/2018 12:50:0017.8780,05.8907661018
25/04/2018 12:40:0017.7780,05.8988111018
25/04/2018 12:30:0017.7780,05.1918531018
25/04/2018 12:20:0017.9780,05.1758581017
25/04/2018 12:10:0017.9780,05.8798751017
25/04/2018 12:00:0018.0830,06.0779491017
25/04/2018 11:50:0018.2830,05.3839021017
25/04/2018 11:40:0018.1800,03.9938711017
25/04/2018 11:30:0018.2810,03.1888841017
25/04/2018 11:20:0018.1800,02.61048761017
25/04/2018 11:10:0018.2790,02.11137281017
25/04/2018 11:00:0018.5770,02.21047831017
25/04/2018 10:50:0018.8760,02.1726881017
25/04/2018 10:40:0018.8780,02.3716641017
25/04/2018 10:30:0018.6800,02.1718731017
25/04/2018 10:20:0017.9790,02.11118321017
25/04/2018 10:10:0017.9790,02.21158201017
25/04/2018 10:00:0017.8790,01.91167921017
25/04/2018 9:50:0017.9780,02.0997711017
25/04/2018 9:40:0018.5770,01.71137491017
25/04/2018 9:30:0018.4770,02.1696971017
25/04/2018 9:20:0018.3770,02.4586861017
25/04/2018 9:10:0018.4760,02.5596801017
25/04/2018 9:00:0018.5750,02.2416641017
25/04/2018 8:50:0018.3710,02.01096021017
25/04/2018 8:40:0018.3690,01.91225841017
25/04/2018 8:30:0018.0710,01.91295381017
25/04/2018 8:20:0018.3730,01.81295201017
25/04/2018 8:10:0018.9700,01.01254371017
25/04/2018 8:00:0018.9680,00.9814321017
25/04/2018 7:50:0019.1680,01.2784101017
25/04/2018 7:40:0019.0700,00.61013891017
25/04/2018 7:30:0018.7680,01.1713531017
25/04/2018 7:20:0019.5650,01.3713041017
25/04/2018 7:10:0019.3580,00.83542921017
25/04/2018 7:00:0018.8590,01.33402821017
25/04/2018 6:50:0018.3600,01.83192501017
25/04/2018 6:40:0018.0610,02.03202151017
25/04/2018 6:30:0017.9600,01.72871901017
25/04/2018 6:20:0017.8600,01.22671621017
25/04/2018 6:10:0017.8600,01.32601321017
25/04/2018 6:00:0017.8610,00.83321041017
25/04/2018 5:50:0017.5620,03.4321771017
25/04/2018 5:40:0017.0630,03.3329521016
25/04/2018 5:30:0016.9640,03.2319321017
25/04/2018 5:20:0017.0640,03.1315171016
25/04/2018 5:10:0017.3640,01.824281016
25/04/2018 5:00:0017.2620,01.333821016
25/04/2018 4:50:0017.0650,02.834601016
25/04/2018 4:40:0017.0650,04.234601016
25/04/2018 4:30:0017.0650,02.533901016
25/04/2018 4:20:0016.9650,01.530901016
25/04/2018 4:10:0016.9650,01.426401016
25/04/2018 4:00:0016.9640,02.132201016
25/04/2018 3:50:0017.0650,01.834601016
25/04/2018 3:40:0016.9650,01.936001015
25/04/2018 3:30:0017.0650,01.630501016
25/04/2018 3:20:0017.4650,01.921701016
25/04/2018 3:10:0017.4630,01.033501015
25/04/2018 3:00:0017.6630,01.331701016
25/04/2018 2:50:0017.8620,01.232501016
25/04/2018 2:40:0017.9620,01.531701016
25/04/2018 2:30:0017.9630,00.632701016
25/04/2018 2:20:0017.9630,01.025101016
25/04/2018 2:10:0017.9640,01.835601016
25/04/2018 2:00:0017.9640,01.227301016
25/04/2018 1:50:0017.8660,01.232801016
25/04/2018 1:40:0017.6660,00.631201016
25/04/2018 1:30:0017.6650,00.234801017
25/04/2018 1:20:0017.7650,00.135801017
25/04/2018 1:10:0017.7650,00.631101017
25/04/2018 1:00:0017.7650,01.234201017
25/04/2018 0:50:0017.8650,01.532801017
25/04/2018 0:40:0017.9650,01.632601017
25/04/2018 0:30:0018.0650,01.532801017
25/04/2018 0:20:0018.0640,01.331901017
25/04/2018 0:10:0018.1650,01.731601017
25/04/2018 0:00:0018.4660,01.227401017

ÚLTIMES FOTOS WEBCAM
Imatges del Pont
ÚLTIMES DADES

25/04/2018  
1:50h Local  (23:50 GMT)
 
 Velocitat mitjana del Vent
   0,8 m/s
 Direcció del Vent
   298º
 Humitat Relativa
   65 %
 Temperatura Aparent
   18,6 ºC
 Pluja Acumulada
   Pluja
   Index UV    IndexUV
 Temperatura de l'aigua    N/A
 Alçada d'ona    N/A
 Direcció d'ona    N/A
 Velocitat del corrent    N/A
 Direcció del corrent    N/A